EDT,Max TemperatureF,Mean TemperatureF,Min TemperatureF,Max Dew PointF,MeanDew PointF,Min DewpointF,Max Humidity, Mean Humidity, Min Humidity, Max Sea Level PressureIn, Mean Sea Level PressureIn, Min Sea Level PressureIn, Max VisibilityMiles, Mean VisibilityMiles, Min VisibilityMiles, Max Wind SpeedMPH, Mean Wind SpeedMPH, Max Gust SpeedMPH,PrecipitationIn, CloudCover, Events, WindDirDegrees
2013-3-1,51,40,28,34,29,27,100,67,43,29.97,29.92,29.86,10,10,10,9,3,16,0.00,4,,266
2013-3-2,44,38,32,39,34,27,100,88,61,29.95,29.90,29.86,10,9,0,16,3,24,0.08,8,Rain-Snow,340
2013-3-3,46,38,30,28,22,19,81,58,37,30.04,29.97,29.91,10,10,10,12,5,18,0.00,3,,329
2013-3-4,53,38,23,27,21,18,86,50,24,30.17,30.10,30.04,10,10,10,10,3,,0.00,0,,260
2013-3-5,66,54,41,57,42,27,100,71,49,30.09,29.88,29.66,10,10,7,22,7,33,0.10,5,Rain-Thunderstorm,213
2013-3-6,50,41,32,32,26,21,87,60,35,30.14,29.92,29.73,10,10,10,21,14,36,0.00,1,,300
2013-3-7,59,42,26,32,29,27,100,67,33,30.26,30.19,30.14,10,10,10,10,4,17,0.00,0,,339
2013-3-8,59,44,28,28,25,21,93,55,23,30.33,30.27,30.21,10,10,10,9,5,,0.00,0,,23
2013-3-9,62,45,28,34,29,27,93,55,26,30.37,30.29,30.24,10,10,10,9,3,,0.00,0,,70
2013-3-10,68,52,35,43,35,32,93,58,28,30.30,30.23,30.16,10,10,10,13,3,17,0.00,0,,128
2013-3-11,68,55,42,59,47,39,100,70,46,30.19,30.02,29.85,10,10,5,18,7,28,0.11,4,Rain,160
2013-3-12,68,58,46,59,49,30,100,79,37,30.02,29.87,29.77,10,8,2,14,7,20,0.57,5,Rain,254
2013-3-13,57,45,33,34,28,21,100,54,26,30.19,30.09,30.02,10,10,10,20,7,30,0.00,0,,282
2013-3-14,53,42,32,28,21,14,70,48,21,30.33,30.24,30.18,10,10,10,12,5,17,0.00,0,,319
2013-3-15,69,50,32,39,31,21,80,50,28,30.22,30.10,29.96,10,10,10,20,7,30,0.00,0,,229
2013-3-16,77,66,55,45,41,36,63,42,24,29.96,29.90,29.81,10,10,10,20,11,32,0.00,0,,235
2013-3-17,75,64,53,50,45,37,68,50,36,30.04,29.95,29.91,10,10,10,15,9,24,0.00,1,,229
2013-3-18,55,48,42,45,43,41,100,93,67,30.11,30.02,29.88,10,6,1,16,8,33,0.39,8,Rain-Thunderstorm,52
2013-3-19,69,56,42,52,36,23,100,64,18,30.06,29.96,29.87,10,6,0,15,5,29,0.00,3,Fog,296
2013-3-20,57,46,35,32,21,14,75,37,21,30.14,30.00,29.84,10,10,10,16,5,22,0.00,1,,292
2013-3-21,51,40,30,32,19,10,100,49,20,29.98,29.87,29.83,10,10,10,16,6,23,0.00,0,,328
2013-3-22,50,40,30,30,21,14,69,48,30,30.10,30.04,29.98,10,10,10,9,4,,0.00,5,,175
2013-3-23,48,44,39,48,40,30,100,90,65,30.05,29.99,29.90,10,8,3,6,2,,0.20,7,Rain,100
2013-3-24,46,44,41,46,43,41,100,100,100,29.91,29.68,29.58,10,6,1,18,6,29,1.19,8,Rain-Thunderstorm,47
2013-3-25,46,40,35,41,28,21,100,63,39,29.96,29.75,29.60,10,10,2,25,12,37,0.00,3,,259
2013-3-26,50,39,28,27,24,23,86,58,35,30.21,30.05,29.95,10,10,10,17,8,22,0.00,3,,292
2013-3-27,53,40,28,30,25,21,93,54,28,30.29,30.23,30.18,10,10,10,12,5,17,0.00,0,,314
2013-3-28,59,44,28,30,25,19,87,52,23,30.34,30.27,30.20,10,10,10,12,4,18,0.00,0,,357
2013-3-29,60,45,30,39,29,23,87,53,25,30.36,30.29,30.23,10,10,10,12,4,24,0.00,2,,349
2013-3-30,68,57,46,43,41,37,87,58,33,30.23,30.15,30.06,10,10,10,10,3,,0.00,4,Rain,83
2013-3-31,69,60,51,59,54,45,100,85,49,30.06,29.94,29.88,10,8,2,17,6,26,0.09,6,Rain-Thunderstorm,219